Regional Weather Roundup
Issued by NWS Cleveland, OH

Home | Current Version | Previous Version | Graphics & Text | Print | Product List | Glossary On
Versions: 1 2 3 4 5 6 7 8 9 10 11 12 13 14 15 16 17 18 19 20 21 22 23 24 25 26 27 28 29 30 31 32 33 34 35 36 37 38 39 40 41 42 43 44 45 46 47 48 49 50
000
ASUS41 KCLE 042210
RWRCLE
OHIO REGIONAL WEATHER ROUNDUP
NATIONAL WEATHER SERVICE CLEVELAND, OH
500 PM EST SUN DEC 04 2016

NOTE: "FAIR" INDICATES FEW OR NO CLOUDS BELOW 12,000 FEET WITH NO
SIGNIFICANT WEATHER AND/OR OBSTRUCTIONS TO VISIBILITY.

OHZ001>008-015>018-024>027-034-035-043-044-042300-
   NORTHWEST OHIO

CITY           SKY/WX    TMP DP  RH WIND       PRES   REMARKS
DEFIANCE       LGT SNOW  37  30  75 E9        29.97F
FINDLAY        LGT RAIN  38  30  73 E6        29.96F
TOLEDO EXPRESS CLOUDY    37  29  72 E9        29.98F
TOLEDO EXEC    CLOUDY    39  30  70 NE6       30.00F
LIMA           LGT SNOW  34  33  96 NE3       29.95R FOG
$$

OHZ009>014-019>023-028>033-038-089-042300-
   NORTHEAST OHIO

CITY           SKY/WX    TMP DP  RH WIND       PRES   REMARKS
CLE-HOPKINS    CLOUDY    41  27  57 E9        30.02F
CLE-LAKEFRONT  CLOUDY    41  28  60 E10       30.00F
CUY CO. ARPT   CLOUDY    41  30  65 SE14      30.00F
LORAIN-ELYRIA  CLOUDY    38  27  64 SE8       30.00F
ASHTABULA      CLOUDY    39  30  70 SE8       30.04F
AKRON-CANTON   CLOUDY    40  27  59 SE12      29.99F
WOOSTER        CLOUDY    38  27  64 SE10      29.98F
MANSFIELD      CLOUDY    38  27  64 E12       29.95F
YOUNGSTOWN     CLOUDY    38  28  67 SE14G20   30.01F
$$

OHZ042-051>053-060>062-070>072-077>081-042300-
  SOUTHWEST OHIO

CITY           SKY/WX    TMP DP  RH WIND       PRES   REMARKS
CINC-COVINGTON DRIZZLE   41  37  86 SE7       29.91S
CINC-LUNKEN    CLOUDY    44  35  70 CALM      29.94F
HAMILTON       CLOUDY    41  36  82 CALM      29.95R
DAYTON         LGT RAIN  37  34  89 SE10      29.93S FOG
WRIGHT-PAT AFB LGT RAIN  39  35  87 SE6       29.93S FOG
DAYTON GENERAL LGT RAIN  38  33  82 SE6       29.92S
WILMINGTON     LGT RAIN  38  34  85 SE7       29.92F FOG
$$

OHZ036-037-039>041-045>050-054>059-063>069-073>076-082>088-042300-
  CENTRAL AND SOUTHEAST OHIO

CITY           SKY/WX    TMP DP  RH WIND       PRES   REMARKS
COLUMBUS       LGT RAIN  40  31  70 E10       29.94F
OSU AIRPORT    LGT RAIN  39  30  70 E12       29.94F
BOLTON FIELD   LGT RAIN  39  30  70 E7        29.95F
RICKENBACK AFB LGT RAIN  40  31  69 E6        29.94F
NEWARK         CLOUDY    41  27  57 E8        29.95F
MARION         CLOUDY    39  28  64 SE10      29.94F
LANCASTER      LGT RAIN  41  30  65 E13       29.95F
ZANESVILLE     CLOUDY    41  27  57 E7        29.97F
NEW PHILLY     CLOUDY    41  29  62 SE9       30.00F
$$




USA.gov is the U.S. government's official web portal to all federal, state and local government web resources and services.